Regional Weather Roundup
Issued by NWS Huntsville, AL

Home | Current Version | Previous Version | Text Only | Print | Product List | Glossary On
Versions: 1 2 3 4 5 6 7 8 9 10 11 12 13 14 15 16 17 18 19 20 21 22 23 24 25 26 27 28 29 30 31 32 33 34 35 36 37 38 39 40 41 42 43 44 45 46 47 48 49 50
000
ASUS44 KHUN 150510
RWRHUN

WEATHER ROUNDUP FOR THE TENNESSEE VALLEY
NATIONAL WEATHER SERVICE HUNTSVILLE AL
1100 PM CST THU DEC 14 2017

ALZ001>004-150600-
NORTHWEST ALABAMA

CITY           SKY/WX    TMP DP  RH WIND       PRES   REMARKS
COURTLAND HCN    N/A     34 N/A N/A CALM        N/A
RUSSELLVILLE     N/A     36 N/A N/A MISG        N/A
SHOALS AIRPORT CLOUDY    34  24  67 E5        30.12S WCI  30
SHOALS TVA RES   N/A     34 N/A N/A MISG        N/A
$$

ALZ005>007-016-150600-
NORTH CENTRAL ALABAMA

CITY           SKY/WX    TMP DP  RH WIND       PRES   REMARKS
CULLMAN AG STN   N/A     36 N/A N/A N5          N/A  WCI  32
DECATUR AP     CLOUDY    32  27  81 N5        30.11R WCI  27
HUNTSVILLE AP  CLOUDY    35  26  69 N9        30.10R WCI  28
MERIDIANVILLE  CLOUDY    32  27  80 N6        30.10R WCI  26
REDSTONE ARSN  CLOUDY    33  25  72 N9        30.08R WCI  25
VINEMONT AP    FAIR      34  25  69 N8        30.09S WCI  27
$$

ALZ008>010-150600-
NORTHEAST ALABAMA

CITY           SKY/WX    TMP DP  RH WIND       PRES   REMARKS
ALBERTVILLE    CLOUDY    37  34  87 NW6       30.04R WCI  33
FORT PAYNE     CLOUDY    37  28  70 CALM      30.03S
SCOTTSBORO AP  CLOUDY    37  28  70 VRB5      30.07R WCI  34
SCOTTSBORO HCN   N/A     37 N/A N/A MISG        N/A
VALLEY HEAD      N/A     34 N/A N/A MISG        N/A
$$

TNZ076-096-097-150600-
SOUTHEASTERN MIDDLE TENNESSEE

CITY           SKY/WX    TMP DP  RH WIND       PRES   REMARKS
TULLAHOMA      PTCLDY    27  23  86 CALM      30.07R
WINCHESTER     CLEAR     28  25  86 CALM      30.08R
$$

...SURROUNDING SITES...

CITY           SKY/WX    TMP DP  RH WIND       PRES   REMARKS
ATLANTA        CLOUDY    45  37  73 W5        30.00R
ANNISTON       PTCLDY    41  37  86 CALM      30.03S
BIRMINGHAM     CLOUDY    45  33  63 N10       30.06R
CHATTANOOGA    CLOUDY    36  27  69 N6        30.05R WCI  31
CORINTH        FAIR      32  25  74 CALM      30.12S
DALTON         CLOUDY    37  30  75 NW7       30.03S WCI  32
GADSDEN        CLOUDY    43  34  70 N5        30.05R
GOLDEN TRNGL   PTCLDY    42  30  62 N9        30.09R
HALEYVILLE     FAIR      35  26  69 N6        30.10R WCI  30
JACKSON TN     CLEAR     28  23  81 CALM      30.14R
MEMPHIS        CLEAR     35  26  69 NE7       30.14R WCI  29
NASHVILLE      CLOUDY    34  21  59 NW7       30.11R WCI  28
OXFORD MS      FAIR      32  27  80 CALM      30.14R
ROME           CLOUDY    41  34  76 NE3       30.01S
SAVANNAH       CLEAR     27  25  93 CALM      30.11F
SELMER         CLEAR     27  25  93 N5        30.11S WCI  21
TUPELO         MOCLDY    34  26  72 N7        30.12R WCI  28
TUSCALOOSA     CLOUDY    47  38  71 N7        30.05S
$$

...GULF COAST WEATHER...

CITY           SKY/WX    TMP DP  RH WIND       PRES   REMARKS
GULFPORT       MOCLDY    47  45  93 CALM      30.04R FOG
PASCAGOULA     PTCLDY    46  43  89 CALM      30.05S FOG
MOBILE         CLOUDY    47  44  90 CALM      30.04S
GULF SHORES    CLOUDY    51  48  90 NW3       30.04F
PENSACOLA      CLOUDY    51  46  83 NW5       30.03R
DESTIN         CLOUDY    56  47  71 N3        30.03S
PANAMA CITY    MOCLDY    56  53  91 CALM      30.03R
APPALACHICOLA  PTCLDY    52  52 100 S6        30.03F
$$




USA.gov is the U.S. government's official web portal to all federal, state and local government web resources and services.